| time (UTC) | temp F | wind direction | speed MPH | gust MPH | rain 1hr in | rain 24hr in | rain mn in | humidity % | barometer mb |
| 20260902204604 | 65 | 245 | 2.0 | 7.0 | 0.00 | 0.00 | 0.00 | 70 | 1023.3 |
| 20260902203059 | 66 | 0 | 3.0 | 7.0 | 0.00 | 0.00 | 0.00 | 68 | 1023.3 |
| 20260902201600 | 67 | 141 | 2.0 | 8.0 | 0.00 | 0.00 | 0.00 | 68 | 1023.1 |
| 20260902194600 | 67 | 88 | 3.0 | 9.0 | 0.00 | 0.00 | 0.00 | 69 | 1023.8 |
| 20260902193104 | 67 | 352 | 1.0 | 7.0 | 0.00 | 0.00 | 0.00 | 70 | 1023.9 |
| 20260902191557 | 66 | 231 | 3.0 | 7.0 | 0.00 | 0.00 | 0.00 | 70 | 1024.0 |
| 20260902190057 | 66 | 158 | 3.0 | 9.0 | 0.00 | 0.00 | 0.00 | 70 | 1024.2 |
| 20260902184600 | 66 | 159 | 3.0 | 10.0 | 0.00 | 0.00 | 0.00 | 70 | 1024.2 |
| 20260902183056 | 66 | 0 | 3.0 | 9.0 | 0.00 | 0.00 | 0.00 | 70 | 1024.1 |
| 20260902181602 | 67 | 203 | 2.0 | 7.0 | 0.00 | 0.00 | 0.00 | 70 | 1024.0 |
| 20260902180129 | 67 | 197 | 2.0 | 5.0 | 0.00 | 0.00 | 0.00 | 68 | 1024.2 |
| 20260902174554 | 68 | 61 | 3.0 | 9.0 | 0.00 | 0.00 | 0.00 | 67 | 1024.1 |
| 20260902173101 | 68 | 153 | 2.0 | 9.0 | 0.00 | 0.00 | 0.00 | 67 | 1023.9 |
| 20260902171558 | 70 | 86 | 3.0 | 10.0 | 0.00 | 0.00 | 0.00 | 63 | 1023.8 |
| 20260902170053 | 70 | 74 | 2.0 | 8.0 | 0.00 | 0.00 | 0.00 | 61 | 1023.8 |
| 20260902164601 | 70 | 107 | 2.0 | 9.0 | 0.00 | 0.00 | 0.00 | 62 | 1023.8 |
| 20260902163103 | 69 | 332 | 1.0 | 7.0 | 0.00 | 0.00 | 0.00 | 64 | 1024.2 |
| 20260902161557 | 70 | 184 | 1.0 | 10.0 | 0.00 | 0.00 | 0.00 | 61 | 1024.4 |
| 20260902160057 | 70 | 203 | 3.0 | 8.0 | 0.00 | 0.00 | 0.00 | 62 | 1024.4 |
| 20260902154557 | 70 | 153 | 2.0 | 13.0 | 0.00 | 0.00 | 0.00 | 60 | 1024.5 |
| 20260902153054 | 70 | 78 | 3.0 | 11.0 | 0.00 | 0.00 | 0.00 | 60 | 1024.5 |
| 20260902151552 | 69 | 233 | 3.0 | 8.0 | 0.00 | 0.00 | 0.00 | 62 | 1024.4 |
| 20260902150100 | 69 | 132 | 2.0 | 7.0 | 0.00 | 0.00 | 0.00 | 65 | 1024.3 |
| 20260902144558 | 69 | 182 | 2.0 | 7.0 | 0.00 | 0.00 | 0.00 | 64 | 1024.3 |
| 20260902143059 | 68 | 219 | 2.0 | 4.0 | 0.00 | 0.00 | 0.00 | 64 | 1024.4 |
| 20260902141549 | 68 | 0 | 1.0 | 7.0 | 0.00 | 0.00 | 0.00 | 66 | 1024.3 |
| 20260902140048 | 69 | 215 | 1.0 | 6.0 | 0.00 | 0.00 | 0.00 | 71 | 1024.0 |
| 20260902134607 | 67 | 96 | 2.0 | 7.0 | 0.00 | 0.00 | 0.00 | 74 | 1023.9 |
| 20260902133056 | 67 | 31 | 0.0 | 3.0 | 0.00 | 0.00 | 0.00 | 77 | 1024.1 |
| 20260902131602 | 65 | 62 | 2.0 | 6.0 | 0.00 | 0.00 | 0.00 | 81 | 1024.2 |
| 20260902124600 | 63 | 0 | 0.0 | 4.0 | 0.00 | 0.00 | 0.00 | 88 | 1024.1 |
| 20260902123058 | 61 | 0 | 0.0 | 3.0 | 0.00 | 0.00 | 0.00 | 91 | 1023.9 |
| 20260902121601 | 61 | 28 | 0.0 | 3.0 | 0.00 | 0.00 | 0.00 | 92 | 1024.3 |
| 20260902120059 | 60 | 0 | 0.0 | 3.0 | 0.00 | 0.00 | 0.00 | 93 | 1024.2 |
| 20260902114556 | 60 | 0 | 0.0 | 0.0 | 0.00 | 0.00 | 0.00 | 93 | 1024.2 |
| 20260902113104 | 60 | 0 | 0.0 | 3.0 | 0.00 | 0.00 | 0.00 | 93 | 1024.1 |
| 20260902111553 | 59 | 0 | 0.0 | 7.0 | 0.00 | 0.00 | 0.00 | 93 | 1024.0 |
| 20260902110058 | 59 | 0 | 0.0 | 4.0 | 0.00 | 0.00 | 0.00 | 93 | 1023.7 |
| 20260902104557 | 59 | 73 | 0.0 | 2.0 | 0.00 | 0.00 | 0.00 | 92 | 1023.7 |
| 20260902103055 | 59 | 130 | 0.0 | 5.0 | 0.00 | 0.00 | 0.00 | 92 | 1023.5 |
| 20260902101600 | 60 | 0 | 0.0 | 3.0 | 0.00 | 0.00 | 0.00 | 92 | 1023.5 |
| 20260902100111 | 60 | 0 | 0.0 | 4.0 | 0.00 | 0.00 | 0.00 | 92 | 1023.4 |
| 20260902094558 | 60 | 75 | 0.0 | 1.0 | 0.00 | 0.00 | 0.00 | 92 | 1023.5 |
| 20260902093055 | 60 | 0 | 0.0 | 1.0 | 0.00 | 0.00 | 0.00 | 92 | 1023.5 |
| 20260902091552 | 60 | 0 | 0.0 | 2.0 | 0.00 | 0.00 | 0.00 | 92 | 1023.4 |
| 20260902090057 | 60 | 0 | 0.0 | 3.0 | 0.00 | 0.00 | 0.00 | 92 | 1023.4 |
| 20260902084602 | 60 | 0 | 0.0 | 1.0 | 0.00 | 0.00 | 0.00 | 92 | 1023.4 |
| 20260902083058 | 60 | 0 | 0.0 | 1.0 | 0.00 | 0.00 | 0.00 | 92 | 1023.4 |
| 20260902081606 | 60 | 0 | 0.0 | 1.0 | 0.00 | 0.00 | 0.00 | 92 | 1023.4 |
| 20260902080058 | 60 | 0 | 0.0 | 2.0 | 0.00 | 0.00 | 0.00 | 92 | 1023.2 |
| 20260902074556 | 60 | 27 | 1.0 | 3.0 | 0.00 | 0.00 | 0.00 | 91 | 1023.0 |
| 20260902073057 | 60 | 0 | 0.0 | 2.0 | 0.00 | 0.00 | 0.00 | 91 | 1023.0 |
| 20260902071554 | 60 | 0 | 0.0 | 2.0 | 0.00 | 0.00 | 0.00 | 91 | 1022.9 |
| 20260902070109 | 60 | 0 | 0.0 | 2.0 | 0.00 | 0.00 | 0.00 | 91 | 1022.8 |
| 20260902064609 | 60 | 0 | 0.0 | 3.0 | 0.00 | 0.00 | 0.00 | 91 | 1022.7 |
| 20260902063057 | 60 | 0 | 0.0 | 2.0 | 0.00 | 0.00 | 0.00 | 91 | 1022.6 |
| 20260902061606 | 60 | 0 | 0.0 | 2.0 | 0.00 | 0.00 | 0.00 | 91 | 1022.7 |
| 20260902060108 | 61 | 0 | 0.0 | 2.0 | 0.00 | 0.00 | 0.00 | 90 | 1022.6 |
| 20260902054556 | 61 | 0 | 1.0 | 3.0 | 0.00 | 0.00 | 0.00 | 90 | 1022.6 |
| 20260902053104 | 61 | 0 | 0.0 | 1.0 | 0.00 | 0.00 | 0.00 | 91 | 1022.6 |
| 20260902051553 | 61 | 0 | 0.0 | 3.0 | 0.00 | 0.00 | 0.00 | 90 | 1022.1 |
| 20260902050121 | 62 | 0 | 0.0 | 0.0 | 0.00 | 0.00 | 0.00 | 90 | 1021.9 |
| 20260902044558 | 62 | 0 | 0.0 | 6.0 | 0.00 | 0.00 | 0.00 | 90 | 1021.8 |
| 20260902043100 | 62 | 77 | 0.0 | 4.0 | 0.00 | 0.00 | 0.00 | 91 | 1021.6 |
| 20260902041555 | 63 | 21 | 0.0 | 2.0 | 0.00 | 0.00 | 0.00 | 91 | 1021.8 |
| 20260902034559 | 63 | 0 | 0.0 | 1.0 | 0.00 | 0.00 | 0.00 | 90 | 1021.6 |
| 20260902033056 | 63 | 0 | 0.0 | 1.0 | 0.00 | 0.00 | 0.00 | 90 | 1021.6 |
| 20260902031558 | 63 | 21 | 0.0 | 3.0 | 0.00 | 0.00 | 0.00 | 89 | 1021.4 |
| 20260902030057 | 63 | 0 | 0.0 | 4.0 | 0.00 | 0.00 | 0.00 | 89 | 1021.1 |
| 20260902024556 | 63 | 0 | 0.0 | 2.0 | 0.00 | 0.00 | 0.00 | 89 | 1021.1 |
| 20260902023056 | 63 | 0 | 0.0 | 3.0 | 0.00 | 0.00 | 0.00 | 88 | 1021.1 |
| 20260902021549 | 63 | 0 | 0.0 | 3.0 | 0.00 | 0.00 | 0.00 | 88 | 1021.1 |
| 20260902020047 | 63 | 0 | 0.0 | 1.0 | 0.00 | 0.00 | 0.00 | 88 | 1021.0 |
| 20260902014554 | 64 | 0 | 0.0 | 0.0 | 0.00 | 0.00 | 0.00 | 87 | 1021.1 |
| 20260902013049 | 64 | 0 | 0.0 | 0.0 | 0.00 | 0.00 | 0.00 | 87 | 1021.2 |
| 20260902011557 | 64 | 0 | 0.0 | 2.0 | 0.00 | 0.00 | 0.00 | 87 | 1021.2 |
| 20260902010105 | 64 | 0 | 0.0 | 2.0 | 0.00 | 0.00 | 0.00 | 87 | 1021.1 |
| 20260902004557 | 64 | 66 | 0.0 | 4.0 | 0.00 | 0.00 | 0.00 | 87 | 1020.9 |
| 20260902003059 | 64 | 185 | 0.0 | 4.0 | 0.00 | 0.00 | 0.00 | 87 | 1020.7 |
| 20260902001617 | 64 | 140 | 1.0 | 4.0 | 0.00 | 0.00 | 0.00 | 86 | 1020.5 |
| 20260902000057 | 64 | 0 | 2.0 | 8.0 | 0.00 | 0.00 | 0.00 | 86 | 1020.4 |
| 20260901234600 | 64 | 169 | 1.0 | 8.0 | 0.00 | 0.00 | 0.00 | 86 | 1020.4 |
| 20260901233057 | 65 | 57 | 1.0 | 5.0 | 0.00 | 0.00 | 0.00 | 85 | 1020.5 |
| 20260901231557 | 65 | 187 | 1.0 | 5.0 | 0.00 | 0.00 | 0.00 | 85 | 1020.4 |
| 20260901230057 | 65 | 105 | 1.0 | 6.0 | 0.00 | 0.00 | 0.00 | 85 | 1020.4 |
| 20260901224603 | 66 | 123 | 0.0 | 7.0 | 0.00 | 0.00 | 0.00 | 84 | 1020.2 |
| 20260901223059 | 66 | 154 | 1.0 | 8.0 | 0.00 | 0.00 | 0.00 | 83 | 1020.1 |
| 20260901221603 | 66 | 193 | 2.0 | 10.0 | 0.00 | 0.00 | 0.00 | 82 | 1020.2 |
| 20260901220100 | 68 | 190 | 3.0 | 8.0 | 0.00 | 0.00 | 0.00 | 79 | 1020.1 |
| 20260901214601 | 69 | 194 | 1.0 | 9.0 | 0.00 | 0.00 | 0.00 | 77 | 1020.0 |
| 20260901213102 | 71 | 240 | 2.0 | 10.0 | 0.00 | 0.00 | 0.00 | 74 | 1019.8 |
| 20260901211550 | 70 | 182 | 3.0 | 10.0 | 0.00 | 0.00 | 0.00 | 75 | 1019.6 |